Hourly Weather Bolshie Lupyazhi

Today, 18 June, Friday

Time Temperature Precipitation Wind Pressure Humidity
00:00 +14°C° 0 mm 2 mps 759 mmHg 82%
01:00 +14°C° 0 mm 2 mps 759 mmHg 82%
02:00 +14°C° 0 mm 2 mps 760 mmHg 83%
03:00 +13°C° 0 mm 2 mps 760 mmHg 83%
04:00 +14°C° 0 mm 2 mps 760 mmHg 81%
05:00 +15°C° 0 mm 1 mps 760 mmHg 79%
06:00 +16°C° 0 mm 1 mps 761 mmHg 77%
07:00 +18°C° 0 mm 2 mps 761 mmHg 70%
08:00 +19°C° 0 mm 2 mps 761 mmHg 63%
09:00 +21°C° 0 mm 2 mps 761 mmHg 56%
10:00 +23°C° 0 mm 2 mps 761 mmHg 52%
11:00 +24°C° 0 mm 2 mps 761 mmHg 49%
12:00 +25°C° 0 mm 2 mps 761 mmHg 46%
13:00 +25°C° 0 mm 2 mps 761 mmHg 46%
14:00 +26°C° 0 mm 2 mps 761 mmHg 46%
15:00 +26°C° 0 mm 2 mps 760 mmHg 45%
16:00 +26°C° 0 mm 2 mps 760 mmHg 50%
17:00 +25°C° 0 mm 2 mps 760 mmHg 55%
18:00 +25°C° 0 mm 1 mps 760 mmHg 60%
19:00 +23°C° 0 mm 1 mps 760 mmHg 67%
20:00 +21°C° 0 mm 1 mps 760 mmHg 74%
21:00 +19°C° 0 mm 1 mps 760 mmHg 82%
22:00 +18°C° 0 mm 1 mps 760 mmHg 84%
23:00 +16°C° 0 mm 1 mps 761 mmHg 86%

Tomorrow, 19 June, Saturday

Time Temperature Precipitation Wind Pressure Humidity
00:00 +16°C° 0 mm 1 mps 761 mmHg 88%
01:00 +15°C° 0 mm 1 mps 761 mmHg 89%
02:00 +15°C° 0 mm 1 mps 761 mmHg 90%
03:00 +14°C° 0 mm 1 mps 761 mmHg 91%
04:00 +15°C° 0 mm 1 mps 761 mmHg 88%
05:00 +16°C° 0 mm 1 mps 761 mmHg 85%
06:00 +18°C° 0 mm 1 mps 761 mmHg 82%
07:00 +20°C° 0 mm 1 mps 761 mmHg 76%
08:00 +21°C° 0 mm 1 mps 761 mmHg 70%
09:00 +23°C° 0 mm 1 mps 761 mmHg 64%
10:00 +24°C° 0 mm 2 mps 761 mmHg 60%
11:00 +25°C° 0 mm 2 mps 761 mmHg 56%
12:00 +26°C° 0 mm 2 mps 761 mmHg 52%
13:00 +26°C° 0 mm 2 mps 760 mmHg 51%
14:00 +27°C° 0 mm 2 mps 760 mmHg 50%
15:00 +27°C° 0 mm 2 mps 760 mmHg 49%
16:00 +27°C° 0 mm 2 mps 759 mmHg 53%
17:00 +26°C° 0 mm 2 mps 759 mmHg 57%
18:00 +26°C° 0 mm 2 mps 759 mmHg 61%
19:00 +24°C° 0 mm 2 mps 759 mmHg 68%
20:00 +22°C° 0 mm 1 mps 759 mmHg 75%
21:00 +20°C° 0 mm 1 mps 759 mmHg 82%
22:00 +19°C° 0 mm 1 mps 759 mmHg 84%
23:00 +18°C° 0 mm 1 mps 759 mmHg 86%

Day after tomorrow, 20 June, Sunday

Time Temperature Precipitation Wind Pressure Humidity
00:00 +18°C° 0 mm 1 mps 759 mmHg 89%
01:00 +16°C° 0 mm 1 mps 759 mmHg 90%
02:00 +16°C° 0 mm 1 mps 759 mmHg 91%
03:00 +16°C° 0 mm 1 mps 759 mmHg 92%
04:00 +16°C° 0 mm 1 mps 759 mmHg 89%
05:00 +18°C° 0 mm 1 mps 759 mmHg 86%
06:00 +19°C° 0 mm 1 mps 759 mmHg 84%
07:00 +21°C° 0 mm 1 mps 759 mmHg 77%
08:00 +23°C° 0 mm 1 mps 759 mmHg 70%
09:00 +24°C° 0 mm 1 mps 759 mmHg 64%
10:00 +25°C° 0 mm 1 mps 759 mmHg 59%
11:00 +27°C° 0 mm 1 mps 759 mmHg 55%
12:00 +28°C° 0 mm 2 mps 759 mmHg 51%
13:00 +28°C° 0 mm 2 mps 758 mmHg 50%
14:00 +28°C° 0 mm 2 mps 758 mmHg 49%
15:00 +29°C° 0 mm 2 mps 758 mmHg 48%
16:00 +28°C° 0 mm 2 mps 758 mmHg 52%
17:00 +28°C° 0 mm 1 mps 757 mmHg 57%
18:00 +28°C° 0 mm 1 mps 757 mmHg 61%
19:00 +25°C° 0 mm 1 mps 757 mmHg 67%
20:00 +23°C° 0 mm 1 mps 757 mmHg 74%
21:00 +21°C° 0 mm 1 mps 757 mmHg 80%
22:00 +21°C° 0 mm 1 mps 757 mmHg 81%
23:00 +20°C° 0 mm 1 mps 757 mmHg 82%

21 June, Monday

Time Temperature Precipitation Wind Pressure Humidity
00:00 +19°C° 0 mm 1 mps 757 mmHg 83%
01:00 +19°C° 0 mm 1 mps 757 mmHg 83%
02:00 +19°C° 0 mm 1 mps 757 mmHg 84%
03:00 +19°C° 0 mm 1 mps 757 mmHg 85%
04:00 +19°C° 0 mm 1 mps 757 mmHg 84%
05:00 +20°C° 0 mm 1 mps 758 mmHg 82%
06:00 +21°C° 0 mm 1 mps 758 mmHg 81%
07:00 +22°C° 0 mm 1 mps 758 mmHg 75%
08:00 +24°C° 0 mm 1 mps 757 mmHg 69%
09:00 +26°C° 0 mm 2 mps 757 mmHg 64%
10:00 +27°C° 0 mm 2 mps 757 mmHg 60%
11:00 +28°C° 0 mm 2 mps 757 mmHg 57%
12:00 +29°C° 0 mm 2 mps 757 mmHg 53%
13:00 +29°C° 0 mm 2 mps 757 mmHg 53%
14:00 +29°C° 0 mm 2 mps 757 mmHg 52%
15:00 +30°C° 0 mm 2 mps 756 mmHg 51%
16:00 +29°C° 0 mm 2 mps 756 mmHg 57%
17:00 +29°C° 0 mm 1 mps 756 mmHg 62%
18:00 +28°C° 0 mm 1 mps 756 mmHg 68%
19:00 +27°C° 0 mm 1 mps 756 mmHg 71%
20:00 +25°C° 0 mm 1 mps 756 mmHg 75%
21:00 +23°C° 0 mm 1 mps 756 mmHg 78%
22:00 +23°C° 0 mm 1 mps 756 mmHg 80%
23:00 +20°C° 0 mm 0 mps 756 mmHg 82%

22 June, Tuesday

Time Temperature Precipitation Wind Pressure Humidity
00:00 +20°C° 0 mm 0 mps 756 mmHg 83%
01:00 +19°C° 0 mm 0 mps 756 mmHg 84%
02:00 +19°C° 0 mm 0 mps 756 mmHg 85%
03:00 +19°C° 0 mm 0 mps 756 mmHg 86%
04:00 +19°C° 0 mm 0 mps 756 mmHg 85%
05:00 +20°C° 0 mm 0 mps 756 mmHg 83%
06:00 +23°C° 0 mm 1 mps 756 mmHg 82%
07:00 +24°C° 0 mm 1 mps 757 mmHg 76%
08:00 +26°C° 0 mm 1 mps 757 mmHg 70%
09:00 +28°C° 0 mm 1 mps 757 mmHg 64%
10:00 +29°C° 0 mm 1 mps 757 mmHg 59%
11:00 +30°C° 0 mm 1 mps 756 mmHg 55%
12:00 +31°C° 0 mm 1 mps 756 mmHg 50%
13:00 +31°C° 0 mm 1 mps 756 mmHg 49%
14:00 +31°C° 0 mm 1 mps 756 mmHg 47%
15:00 +32°C° 0 mm 1 mps 756 mmHg 45%
16:00 +31°C° 0 mm 1 mps 756 mmHg 50%
17:00 +31°C° 0 mm 1 mps 756 mmHg 54%
18:00 +31°C° 0 mm 1 mps 756 mmHg 59%
19:00 +29°C° 0 mm 1 mps 756 mmHg 65%
20:00 +26°C° 0 mm 1 mps 756 mmHg 71%
21:00 +22°C° 0 mm 0 mps 756 mmHg 78%
22:00 +22°C° 0 mm 0 mps 756 mmHg 80%
23:00 +23°C° 0 mm 1 mps 756 mmHg 82%

23 June, Wednesday

Time Temperature Precipitation Wind Pressure Humidity
00:00 +22°C° 0 mm 1 mps 756 mmHg 84%
01:00 +22°C° 0 mm 1 mps 756 mmHg 85%
02:00 +22°C° 0 mm 1 mps 756 mmHg 86%
03:00 +21°C° 0 mm 1 mps 756 mmHg 88%
04:00 +22°C° 0 mm 1 mps 756 mmHg 85%
05:00 +23°C° 0 mm 1 mps 756 mmHg 83%
06:00 +22°C° 0 mm 0 mps 757 mmHg 80%
07:00 +24°C° 0 mm 0 mps 757 mmHg 74%
08:00 +25°C° 0 mm 0 mps 757 mmHg 68%
09:00 +27°C° 0 mm 0 mps 757 mmHg 62%
10:00 +30°C° 0 mm 1 mps 757 mmHg 58%
11:00 +31°C° 0 mm 1 mps 756 mmHg 53%
12:00 +32°C° 0 mm 1 mps 756 mmHg 49%
13:00 +32°C° 0 mm 1 mps 756 mmHg 47%
14:00 +33°C° 0 mm 1 mps 756 mmHg 46%
15:00 +33°C° 0 mm 1 mps 756 mmHg 44%
16:00 +32°C° 0 mm 1 mps 756 mmHg 50%
17:00 +32°C° 0 mm 1 mps 755 mmHg 55%
18:00 +31°C° 0 mm 1 mps 755 mmHg 60%
19:00 +29°C° 0 mm 1 mps 755 mmHg 65%
20:00 +27°C° 0 mm 1 mps 755 mmHg 70%
21:00 +25°C° 0 mm 1 mps 755 mmHg 74%
22:00 +25°C° 0 mm 1 mps 756 mmHg 76%
23:00 +24°C° 0 mm 1 mps 756 mmHg 78%
Show more